Location: Black Creek
(40.9000°S, 175.5500°E)
Time: 08:42:41
(UTC+00:00)

Explorer 7 - Pass Details

Date: 17 November 2024
Orbit: 455 x 598 km, 50.3° (Epoch: 07 December)

Event Time Altitude Azimuth Distance (km) Brightness Sun altitude
Rises 08:04:10 0° 238° (WSW) 2,620 12.8 -8.4°
Reaches altitude 10° 08:06:25 10° 239° (WSW) 1,707 11.0 -8.7°
Maximum altitude 08:10:16 75° 323° (NW) 504 6.6 -9.3°
Enters shadow 08:13:22 14° 48° (NE) 1,405 8.2 -9.8°
